Regional Weather Roundup
Issued by NWS Newport/Morehead, NC

Home | Current Version | Previous Version | Text Only | Print | Product List | Glossary On
Versions: 1 2 3 4 5 6 7 8 9 10 11 12 13 14 15 16 17 18 19 20 21 22 23 24 25 26 27 28 29 30 31 32 33 34 35 36 37 38 39 40 41 42 43 44 45 46 47 48 49 50
000
ASUS42 KMHX 210413
RWRMHX
WEATHER ROUNDUP FOR EASTERN NORTH CAROLINA
NATIONAL WEATHER SERVICE NEWPORT/MOREHEAD CITY NC
1100 PM EST MON FEB 20 2017

NOTE: "FAIR" INDICATES FEW OR NO CLOUDS BELOW 12,000 FEET
WITH NO SIGNIFICANT WEATHER AND/OR OBSTRUCTIONS TO VISIBILITY

NCZ015>017-031-032-045>047-102-103-210500-
NORTH COAST

CITY           SKY/WX    TMP DP  RH WIND       PRES   REMARKS
EDENTON        CLOUDY    47  42  81 CALM      30.27R
ELIZABETH CITY CLOUDY    46  39  76 E6        30.26S
KITTY HAWK     NOT AVBL
MANTEO         CLOUDY    48  45  88 E9        30.25S

$$

NCZ045>047-081-094-103-104-210500-
CENTRAL COAST

CITY           SKY/WX    TMP DP  RH WIND       PRES   REMARKS
FRISCO         CLEAR     54  45  71 NE6       30.23S

$$

NCZ095-097-098-100-101-210500-
SOUTHERN COAST

CITY           SKY/WX    TMP DP  RH WIND       PRES   REMARKS
BEAUFORT       PTCLDY    51  41  68 NE6       30.23S
CEDAR ISLAND   NOT AVBL
JACKSONVILLE   CLOUDY    54  43  66 E6        30.23R
PINEY ISLAND   CLEAR    N/A N/A N/A NE9       30.23S
WILMINGTON     PTCLDY    56  49  77 E7        30.21S


$$

NCZ011>013-027>030-043-044-078>080-089-090>093-098-210500-
COASTAL PLAIN

CITY           SKY/WX    TMP DP  RH WIND       PRES   REMARKS
AHOSKIE          N/A     47  39  74 CALM      30.27R
CLINTON        CLOUDY    53  46  75 CALM      30.23R
ELIZABETHTOWN  MOCLDY    54  47  75 CALM      30.21S
GOLDSBORO      CLOUDY    52  42  70 E6        30.22R
GREENVILLE     PTCLDY    52  39  62 E5        30.25R
HAVELOCK       PTCLDY    50  41  71 E3        30.24S
KENANSVILLE    NOT AVBL
KINSTON        CLOUDY    53  41  64 CALM      30.25R
NEW BERN       PTCLDY    51  44  77 E6        30.24S
RICHLANDS      PTCLDY    46  43  89 CALM      30.24R
ROCKY MOUNT    PTCLDY    50  43  77 CALM      30.25R
WASHINGTON     PTCLDY    48  37  65 NE5       30.25R
WHITEVILLE     CLOUDY    56  48  74 E6        30.20F

$$

AMZ130-135-150-152-154-156-158-170-250-252-270-ANZ085-086-088-633-658-670-210500-
MARINE OBSERVATIONS

STATION/POSITION TIME  TEMP    WIND        PRES    WAVE   SWELL
                       AIR SEA DIR/SP/G            HT/PER HT/PER
                 (UTC) (F)     (DEG/KT/KT) (MB)    (FT/S) (FT/S)
CHESAPEAKE LIGHT NOT AVBL
64 E VA BEACH    0350   53 53   60/ 17/ 19 1024.0    3/ 5   2/ 7
DUCK             0348   49 49   60/  9/ 10 1024.0
2 E DUCK         0330      49                N/A     2/ 5
OREGON INLET     0348           30/  6/  7   N/A
13E OREGON INLT  NOT AVBL
HATTERAS CG      0348   54 57   40/  5/  8 1023.2
DIAMOND BUOY     0350   60 75   50/ 19/ 25 1023.0    5/ 8   2/15
CAPE LOOKOUT     0400   58      50/ 16/ 17 1023.2
BEAUFORT LAB     0348   52 54   50/  4/  6 1022.5
30 SE NEW RVR IN 0308   62      80/ 14/ 19 1023.0
30 SE NEW RVR IN 0343      66                N/A     4/ 6
27 SE WRIGHTSVLE 0308   63 62   90/ 12/ 19 1021.6
5 SE WRIGHTSVLE  0308   58 56   80/  8/ 12 1022.7
225 S CAPE HAT   0350   69 71   30/ 16/ 19 1020.1    4/ 6   2/11
41 SE CHARLESTON 0250   67 66   70/  6/  6 1021.6    2/ 4   2/ 4

$$




USA.gov is the U.S. government's official web portal to all federal, state and local government web resources and services.